[[{"header":{"parameterUnit":"m.s-1","parameterCategory":1,"la1":30.2991,"la2":30.254,"lo1":-89.0895,"lo2":-89.0444,"dy":0.0017,"dx":0.0017,"nx":28,"ny":28,"refTime":"2024-12-09T09:00:00:Z","depth":0,"parameterNumber":2,"parameterNumberName":"U-component_of_WINDS"},"data":[0,0,0,0,0,0,0,0,0,0,0,0,0,0,0,0,0,0,0,0,0,0,0,0,0,0,0,0,0,0,0,0,0,0,0,0,0,0,0,0,0,0,0,0,0,0,0,0,0,0,0,0,0,0,0,0,0,0,0.7049,0.7049,0,0.7087,0.7087,0.7088,0.7085,0.7084,0.7084,0.7083,0.7126,0.7127,0.7129,0,0,0,0,0,0,0,0,0,0,0,0,0,0.6978,0.6979,0.7049,0.7049,0.705,0.7087,0.7087,0.7088,0.7085,0.7084,0.7084,0.7083,0.7125,0.7127,0.7129,0,0,0,0,0,0,0,0,0,0,0,0,0,0.7012,0.6979,0.7049,0.7053,0.7053,0.7087,0.7087,0.7088,0.7085,0.7084,0.7084,0.7083,0.7124,0.7127,0.7129,0.7162,0,0,0.7137,0.7138,0,0,0,0,0,0,0,0,0.701,0.7014,0.7052,0.7052,0.7053,0.708,0.7078,0.7113,0.7085,0.7073,0.7083,0.7082,0.7111,0.7115,0.7124,0.7164,0.7166,0.7137,0.7139,0.714,0.714,0,0,0,0,0,0,0,0.7007,0.7012,0.7064,0.7052,0.7053,0.7054,0.7058,0.7084,0.7097,0.7074,0.7074,0.7079,0.7112,0.7122,0.7125,0.7166,0.7137,0.7139,0.7141,0.7142,0.7238,0.7239,0,0,0,0,0,0,0.7003,0.7011,0.7063,0.7065,0.7029,0.7056,0.706,0.7072,0.7096,0.7099,0.7079,0.7078,0.7118,0.7122,0.7126,0.7168,0.714,0.7142,0.7143,0.7237,0.7238,0.7239,0,0,0,0,0,0,0.7002,0.7008,0.7061,0.7038,0.7045,0.7058,0.7072,0.7074,0.7084,0.71,0.7103,0.7087,0.7117,0.7123,0.7154,0.717,0.7143,0.7145,0.7236,0.7237,0.7239,0.7251,0,0,0,0,0,0,0.7,0.7008,0.7019,0.7038,0.7046,0.7086,0.7073,0.7075,0.7087,0.7087,0.7108,0.7111,0.7117,0.715,0.7156,0.7173,0.7147,0.7234,0.7236,0.7238,0.7249,0.7253,0.7256,0,0,0,0,0,0.6997,0.7021,0.7019,0.7026,0.706,0.7087,0.7092,0.7097,0.7089,0.7101,0.7112,0.711,0.7167,0.7153,0.716,0.7178,0.7233,0.7236,0.7238,0.7248,0.7252,0.7256,0,0,0,0,0,0,0.7004,0.7023,0.7022,0.7052,0.7068,0.7086,0.7102,0.7101,0.7121,0.7119,0.7127,0.7132,0.7163,0.7173,0.7157,0.7212,0.7199,0.7203,0.7204,0.7208,0.7212,0.7209,0.7149,0,0,0,0,0,0.7008,0.7027,0.7044,0.7069,0.7077,0.7088,0.71,0.7103,0.7121,0.7127,0.7141,0.7158,0.7181,0.7195,0.7216,0.7251,0.7257,0.7266,0.727,0.7272,0.7276,0.7298,0.7303,0.7247,0.7247,0.7247,0,0,0.7019,0.7032,0.7043,0.7071,0.7083,0.7105,0.7094,0.7116,0.7133,0.7131,0.7161,0.7172,0.7192,0.7226,0.7241,0.7235,0.7293,0.7275,0.7277,0.728,0.7301,0.7306,0.7311,0.7249,0.7249,0.7248,0,0,0.7049,0.7059,0.7083,0.7096,0.7115,0.7123,0.7128,0.7147,0.7154,0.7184,0.7184,0.7205,0.7242,0.7257,0.727,0.7308,0.7308,0.7315,0.7332,0.7354,0.7358,0.7362,0.7378,0.7383,0.7318,0.7318,0.7318,0,0.7059,0.709,0.7095,0.7118,0.7131,0.713,0.7155,0.7168,0.7193,0.7203,0.7196,0.7244,0.7258,0.7296,0.7306,0.7315,0.7324,0.7313,0.7357,0.7361,0.7365,0.738,0.7386,0.7319,0.7319,0.7319,0.7319,0,0.7103,0.7125,0.7142,0.7166,0.7181,0.7205,0.7215,0.723,0.7233,0.7242,0.7274,0.729,0.7316,0.7325,0.7327,0.7364,0.7361,0.7355,0.7343,0.7371,0.7386,0.7391,0.732,0.732,0.732,0.7319,0,0,0.7138,0.7166,0.7172,0.7184,0.7206,0.7224,0.7249,0.7273,0.7287,0.7305,0.7328,0.736,0.7356,0.737,0.7375,0.7393,0.7426,0.7386,0.7387,0.7395,0.7471,0.7476,0.7482,0.7425,0.7426,0.7427,0.747,0,0.7171,0.7214,0.722,0.7259,0.7281,0.7281,0.7304,0.7321,0.733,0.7351,0.7362,0.7386,0.7377,0.7386,0.7405,0.7418,0.7441,0.7414,0.7449,0.745,0.7445,0.7489,0.7494,0.7534,0.7475,0.7476,0.7477,0,0.7216,0.7235,0.7276,0.7298,0.7307,0.7326,0.7351,0.737,0.739,0.7396,0.7413,0.7416,0.7445,0.743,0.7471,0.7452,0.7467,0.7476,0.7477,0.7482,0.7466,0.7497,0.7546,0.7553,0.7485,0.7485,0.7484,0,0.7239,0.7276,0.7305,0.7316,0.7341,0.7355,0.7367,0.7386,0.7401,0.7423,0.7433,0.7458,0.7472,0.7492,0.7503,0.7491,0.7543,0.7529,0.7551,0.7551,0.7563,0.7562,0.7617,0.7569,0.7569,0.7569,0.7569,0,0.7277,0.7302,0.7317,0.7335,0.7365,0.7372,0.7402,0.7413,0.7431,0.7453,0.7455,0.7476,0.7488,0.7512,0.752,0.7554,0.756,0.7567,0.7569,0.7568,0.7567,0.7578,0.7577,0.7571,0.757,0.757,0.757,0,0.7308,0.7318,0.7351,0.7373,0.7379,0.74,0.742,0.7439,0.7449,0.7477,0.7484,0.7501,0.7529,0.7541,0.7575,0.7581,0.7621,0.762,0.7614,0.7615,0.7637,0.7635,0.7702,0.7712,0.7656,0.7656,0.7657,0,0.7332,0.7352,0.7376,0.7391,0.7402,0.7426,0.7442,0.7451,0.7468,0.7494,0.751,0.7538,0.7561,0.7607,0.7623,0.765,0.7651,0.7673,0.7655,0.7654,0.7654,0.7654,0.7657,0.7676,0.7677,0.7677,0.7678,0,0.7374,0.7379,0.74,0.7425,0.7444,0.7464,0.7483,0.7496,0.7509,0.7528,0.7556,0.7574,0.761,0.7639,0.7667,0.7681,0.7683,0.7683,0.769,0.7689,0.7685,0.769,0.7624,0.7681,0.7681,0.7681,0.7681,0.768,0.7403,0.7422,0.7443,0.7468,0.7484,0.7503,0.7522,0.7535,0.7559,0.7589,0.7593,0.7624,0.7647,0.7685,0.77,0.7727,0.7721,0.7731,0.7734,0.7736,0.7739,0.768,0.7732,0.7731,0.7731,0.7731,0.7731,0,0.7447,0.7461,0.7484,0.7512,0.7533,0.7531,0.7553,0.7571,0.7599,0.7619,0.7642,0.7676,0.7705,0.7724,0.7753,0.7771,0.7772,0.7778,0.7778,0.7782,0.774,0.7732,0.7777,0.7777,0.7777,0.7777,0.7777,0.7777,0.7473,0.7505,0.7513,0.7554,0.7568,0.7598,0.7611,0.763,0.7646,0.7684,0.7708,0.772,0.7741,0.7772,0.7799,0.7804,0.7816,0.7822,0.7828,0.7789,0.7784,0.778,0.7772,0.7824,0.7824,0.7867,0.7867,0.7868]},{"header":{"parameterUnit":"m.s-1","parameterCategory":1,"la1":30.2991,"la2":30.254,"lo1":-89.0895,"lo2":-89.0444,"dy":0.0017,"dx":0.0017,"nx":28,"ny":28,"refTime":"2024-12-09T09:00:00:Z","depth":0,"parameterNumber":3,"parameterNumberName":"V-component_of_WINDS"},"data":[0,0,0,0,0,0,0,0,0,0,0,0,0,0,0,0,0,0,0,0,0,0,0,0,0,0,0,0,0,0,0,0,0,0,0,0,0,0,0,0,0,0,0,0,0,0,0,0,0,0,0,0,0,0,0,0,0,0,4.1999,4.2,0,4.2099,4.21,4.2102,4.2125,4.2124,4.2124,4.2123,4.2225,4.2228,4.2231,0,0,0,0,0,0,0,0,0,0,0,0,0,4.1828,4.1831,4.1999,4.2,4.2002,4.2099,4.21,4.2102,4.2125,4.2124,4.2124,4.2123,4.2224,4.2227,4.2231,0,0,0,0,0,0,0,0,0,0,0,0,0,4.1912,4.1832,4.1999,4.2025,4.2028,4.2099,4.2101,4.2102,4.2125,4.2124,4.2123,4.2122,4.2222,4.2227,4.2232,4.2283,0,0,4.2247,4.2249,0,0,0,0,0,0,0,0,4.1908,4.1919,4.202,4.2023,4.2027,4.2099,4.2077,4.2163,4.2126,4.2089,4.2123,4.2122,4.2183,4.2192,4.2213,4.2288,4.2292,4.2248,4.2251,4.2253,4.2254,0,0,0,0,0,0,0,4.1902,4.1914,4.2039,4.2021,4.2026,4.2032,4.2043,4.2094,4.214,4.2092,4.2094,4.2105,4.2185,4.2208,4.2215,4.2294,4.2248,4.2252,4.2255,4.2257,4.2418,4.242,0,0,0,0,0,0,4.1891,4.1909,4.2036,4.2042,4.1964,4.2036,4.2048,4.2077,4.214,4.2149,4.2106,4.2106,4.22,4.2209,4.2219,4.2285,4.2253,4.2258,4.226,4.2417,4.2419,4.242,0,0,0,0,0,0,4.1888,4.1902,4.2032,4.1976,4.1993,4.204,4.2072,4.2079,4.2102,4.2151,4.2159,4.212,4.2199,4.2212,4.2268,4.2289,4.226,4.2264,4.2416,4.2418,4.2419,4.2416,0,0,0,0,0,0,4.1883,4.1901,4.1921,4.1976,4.1996,4.2079,4.2073,4.2082,4.211,4.2111,4.2167,4.2175,4.2199,4.226,4.2273,4.2295,4.2268,4.2414,4.2417,4.2419,4.2415,4.2418,4.2421,0,0,0,0,0,4.1876,4.1915,4.1922,4.1937,4.2022,4.208,4.2091,4.2119,4.2112,4.2133,4.2164,4.2173,4.2284,4.2266,4.228,4.2304,4.2413,4.2416,4.2419,4.2414,4.2417,4.2421,0,0,0,0,0,0,4.186,4.1923,4.1931,4.1989,4.2029,4.2084,4.2111,4.2122,4.2164,4.2163,4.2196,4.2208,4.2262,4.2288,4.2267,4.2358,4.2348,4.2354,4.234,4.2344,4.2346,4.234,4.2272,0,0,0,0,0,4.1864,4.1906,4.1958,4.2004,4.2024,4.2064,4.209,4.2108,4.2151,4.2168,4.2203,4.2244,4.2289,4.2317,4.236,4.2418,4.2432,4.2442,4.2445,4.2447,4.2452,4.2487,4.2493,4.243,4.243,4.243,0,0,4.1871,4.191,4.1935,4.2002,4.2035,4.2079,4.2078,4.2123,4.2156,4.2174,4.223,4.2258,4.2305,4.2363,4.239,4.2387,4.2473,4.2451,4.2452,4.2456,4.2491,4.2497,4.2502,4.2432,4.2431,4.2431,0,0,4.1907,4.194,4.1983,4.2017,4.2067,4.2094,4.2104,4.2157,4.2177,4.2233,4.2249,4.2287,4.2362,4.2397,4.2424,4.2473,4.2483,4.2486,4.2502,4.2536,4.2541,4.2545,4.2565,4.2572,4.2491,4.2491,4.2491,0,4.1909,4.1975,4.2004,4.2049,4.2079,4.2098,4.2143,4.2174,4.2235,4.2256,4.225,4.2347,4.238,4.2447,4.2459,4.2479,4.2493,4.2481,4.2537,4.2542,4.2547,4.2567,4.2574,4.2491,4.2491,4.2491,4.2491,0,4.1977,4.2023,4.2051,4.2112,4.2145,4.2189,4.2225,4.2254,4.227,4.2296,4.2354,4.2395,4.2448,4.2465,4.2479,4.2534,4.2531,4.2531,4.2522,4.2553,4.2572,4.258,4.2491,4.2491,4.2491,4.2491,0,0,4.2007,4.2083,4.2093,4.2122,4.2179,4.2215,4.226,4.2313,4.2339,4.238,4.242,4.2484,4.2485,4.2516,4.2534,4.2563,4.2603,4.256,4.2562,4.2569,4.2669,4.267,4.2678,4.2609,4.261,4.2612,4.2666,0,4.2051,4.2135,4.2162,4.2231,4.2275,4.2294,4.2334,4.2373,4.24,4.244,4.2469,4.2515,4.2511,4.253,4.256,4.2592,4.2624,4.2588,4.2648,4.265,4.2638,4.2688,4.2689,4.2738,4.2673,4.2674,4.2675,0,4.2115,4.2159,4.2233,4.2287,4.2306,4.2342,4.2393,4.2431,4.2476,4.2494,4.2528,4.2545,4.2594,4.2581,4.265,4.2625,4.2651,4.267,4.2673,4.2682,4.2666,4.27,4.2754,4.2763,4.2687,4.2686,4.2685,0,4.2132,4.221,4.2265,4.2288,4.2351,4.2377,4.2404,4.2448,4.2479,4.2523,4.2543,4.2592,4.2619,4.2657,4.2687,4.2674,4.2754,4.2742,4.2771,4.277,4.2789,4.2788,4.285,4.2801,4.2801,4.2801,4.2801,0,4.2181,4.2226,4.2274,4.2308,4.236,4.239,4.244,4.2468,4.2508,4.2548,4.2566,4.2604,4.264,4.2682,4.2705,4.276,4.2771,4.2788,4.2794,4.2788,4.2786,4.2807,4.2805,4.2803,4.2802,4.2802,4.2801,0,4.221,4.2244,4.2305,4.236,4.2375,4.2411,4.2458,4.2492,4.2519,4.257,4.2583,4.2626,4.2677,4.2709,4.2773,4.2789,4.285,4.2854,4.2835,4.2839,4.2867,4.2865,4.2947,4.2961,4.29,4.29,4.2901,0,4.224,4.2276,4.2335,4.2364,4.2392,4.2437,4.2468,4.25,4.2532,4.2587,4.2615,4.2666,4.271,4.279,4.2827,4.2877,4.2884,4.2909,4.2891,4.2885,4.2887,4.2886,4.2891,4.2913,4.2913,4.2914,4.2914,0,4.2291,4.2306,4.2351,4.2402,4.2439,4.2481,4.2522,4.2544,4.2583,4.2618,4.2671,4.2704,4.2771,4.2823,4.2876,4.2904,4.2917,4.2919,4.2929,4.2924,4.2913,4.2922,4.2846,4.2917,4.2917,4.2917,4.2917,4.2916,4.2323,4.2357,4.2404,4.2454,4.2489,4.2527,4.2563,4.2595,4.2639,4.2696,4.2711,4.2767,4.2813,4.2886,4.2915,4.2959,4.2956,4.297,4.2974,4.2977,4.2979,4.2904,4.2969,4.2968,4.2968,4.2968,4.2968,0,4.2377,4.2409,4.2455,4.2513,4.2552,4.2559,4.2606,4.2639,4.2688,4.2729,4.2772,4.2833,4.2884,4.2925,4.2978,4.3005,4.3012,4.3018,4.3018,4.3025,4.2977,4.2965,4.3012,4.3012,4.3012,4.3012,4.3012,4.3012,4.241,4.2468,4.2489,4.2564,4.2595,4.2651,4.2677,4.2713,4.2747,4.2815,4.2858,4.2884,4.2926,4.2982,4.3029,4.304,4.3059,4.3065,4.3077,4.3032,4.3028,4.3023,4.3012,4.3068,4.3068,4.3121,4.3122,4.3122]}]]